| time (UTC) | temp F | wind direction | speed knots | gust knots | rain 1hr in | rain 24hr in | rain mn in | humidity % | barometer mb |
| 20260831002234 | 82 | 313 | 0.0 | 0.9 | 0.00 | 0.00 | 0.00 | 84 | 1017.8 |
| 20260831001249 | 83 | 0.0 | 0.0 | 0.00 | 0.00 | 0.00 | 83 | 1017.8 | |
| 20260831000305 | 86 | 0.0 | 0.0 | 0.00 | 0.00 | 0.00 | 77 | 1017.9 | |
| 20260830235240 | 89 | 6 | 0.0 | 0.9 | 0.00 | 0.00 | 0.00 | 71 | 1018.0 |
| 20260830234234 | 91 | 296 | 0.0 | 0.9 | 0.00 | 0.00 | 0.00 | 62 | 1018.2 |
| 20260830233310 | 91 | 288 | 0.9 | 2.6 | 0.00 | 0.00 | 0.00 | 58 | 1018.1 |
| 20260830232306 | 92 | 292 | 0.9 | 1.7 | 0.00 | 0.00 | 0.00 | 57 | 1018.0 |
| 20260830231239 | 92 | 276 | 0.9 | 1.7 | 0.00 | 0.00 | 0.00 | 55 | 1017.9 |
| 20260830230234 | 93 | 267 | 1.7 | 2.6 | 0.00 | 0.00 | 0.00 | 53 | 1017.8 |
| 20260830225248 | 94 | 262 | 0.9 | 2.6 | 0.00 | 0.00 | 0.00 | 53 | 1017.8 |
| 20260830224244 | 94 | 267 | 0.9 | 1.7 | 0.00 | 0.00 | 0.00 | 54 | 1017.8 |
| 20260830223239 | 94 | 254 | 1.7 | 3.5 | 0.00 | 0.00 | 0.00 | 53 | 1017.8 |
| 20260830222235 | 94 | 260 | 1.7 | 2.6 | 0.00 | 0.00 | 0.00 | 52 | 1017.9 |
| 20260830221232 | 94 | 257 | 1.7 | 2.6 | 0.00 | 0.00 | 0.00 | 52 | 1017.9 |
| 20260830220306 | 94 | 266 | 1.7 | 3.5 | 0.00 | 0.00 | 0.00 | 52 | 1018.0 |
| 20260830215238 | 95 | 257 | 1.7 | 3.5 | 0.00 | 0.00 | 0.00 | 52 | 1017.9 |
| 20260830214254 | 94 | 271 | 1.7 | 3.5 | 0.00 | 0.00 | 0.00 | 51 | 1018.1 |
| 20260830213231 | 94 | 265 | 2.6 | 6.1 | 0.00 | 0.00 | 0.00 | 53 | 1018.3 |
| 20260830212247 | 94 | 246 | 1.7 | 5.2 | 0.00 | 0.00 | 0.00 | 52 | 1018.2 |
| 20260830211243 | 94 | 252 | 2.6 | 5.2 | 0.00 | 0.00 | 0.00 | 51 | 1018.3 |
| 20260830210239 | 95 | 221 | 1.7 | 2.6 | 0.00 | 0.00 | 0.00 | 51 | 1018.1 |
| 20260830205233 | 94 | 253 | 2.6 | 6.1 | 0.00 | 0.00 | 0.00 | 50 | 1018.2 |
| 20260830204248 | 95 | 268 | 1.7 | 6.1 | 0.00 | 0.00 | 0.00 | 50 | 1018.5 |
| 20260830203243 | 94 | 274 | 1.7 | 3.5 | 0.00 | 0.00 | 0.00 | 50 | 1018.7 |
| 20260830202239 | 94 | 209 | 1.7 | 3.5 | 0.00 | 0.00 | 0.00 | 52 | 1019.0 |
| 20260830201235 | 94 | 254 | 2.6 | 5.2 | 0.00 | 0.00 | 0.00 | 50 | 1019.0 |
| 20260830200232 | 94 | 181 | 1.7 | 3.5 | 0.00 | 0.00 | 0.00 | 52 | 1019.1 |
| 20260830195248 | 94 | 257 | 1.7 | 5.2 | 0.00 | 0.00 | 0.00 | 50 | 1019.2 |
| 20260830194305 | 94 | 230 | 1.7 | 3.5 | 0.00 | 0.00 | 0.00 | 51 | 1019.1 |
| 20260830193241 | 94 | 245 | 2.6 | 6.1 | 0.00 | 0.00 | 0.00 | 49 | 1019.3 |
| 20260830192237 | 94 | 227 | 2.6 | 6.1 | 0.00 | 0.00 | 0.00 | 50 | 1019.2 |
| 20260830191233 | 93 | 235 | 1.7 | 3.5 | 0.00 | 0.00 | 0.00 | 52 | 1019.4 |
| 20260830190249 | 93 | 271 | 2.6 | 7.8 | 0.00 | 0.00 | 0.00 | 50 | 1019.4 |
| 20260830185246 | 93 | 241 | 1.7 | 6.1 | 0.00 | 0.00 | 0.00 | 53 | 1019.6 |
| 20260830184242 | 93 | 230 | 1.7 | 6.1 | 0.00 | 0.00 | 0.00 | 52 | 1019.8 |
| 20260830183238 | 93 | 224 | 1.7 | 3.5 | 0.00 | 0.00 | 0.00 | 54 | 1019.7 |
| 20260830182234 | 92 | 261 | 2.6 | 7.0 | 0.00 | 0.00 | 0.00 | 52 | 1019.7 |
| 20260830181248 | 92 | 254 | 2.6 | 7.8 | 0.00 | 0.00 | 0.00 | 53 | 1019.9 |
| 20260830180243 | 92 | 216 | 2.6 | 6.1 | 0.00 | 0.00 | 0.00 | 54 | 1019.8 |
| 20260830175237 | 92 | 234 | 2.6 | 6.1 | 0.00 | 0.00 | 0.00 | 54 | 1019.9 |
| 20260830174253 | 92 | 211 | 2.6 | 5.2 | 0.00 | 0.00 | 0.00 | 54 | 1019.9 |
| 20260830173247 | 92 | 259 | 1.7 | 3.5 | 0.00 | 0.00 | 0.00 | 54 | 1020.1 |
| 20260830172306 | 91 | 208 | 1.7 | 6.1 | 0.00 | 0.00 | 0.00 | 53 | 1020.3 |
| 20260830171237 | 92 | 220 | 2.6 | 5.2 | 0.00 | 0.00 | 0.00 | 54 | 1020.4 |
| 20260830170231 | 91 | 197 | 0.9 | 2.6 | 0.00 | 0.00 | 0.00 | 58 | 1020.3 |
| 20260830165246 | 91 | 205 | 1.7 | 3.5 | 0.00 | 0.00 | 0.00 | 58 | 1020.4 |
| 20260830164240 | 90 | 181 | 1.7 | 3.5 | 0.00 | 0.00 | 0.00 | 57 | 1020.5 |
| 20260830163237 | 92 | 179 | 1.7 | 5.2 | 0.00 | 0.00 | 0.00 | 57 | 1020.4 |
| 20260830162232 | 90 | 244 | 1.7 | 2.6 | 0.00 | 0.00 | 0.00 | 60 | 1020.4 |
| 20260830161249 | 90 | 235 | 0.9 | 2.6 | 0.00 | 0.00 | 0.00 | 59 | 1020.5 |
| 20260830160245 | 89 | 211 | 1.7 | 2.6 | 0.00 | 0.00 | 0.00 | 63 | 1020.4 |
| 20260830155241 | 88 | 202 | 2.6 | 5.2 | 0.00 | 0.00 | 0.00 | 62 | 1020.4 |
| 20260830154237 | 88 | 190 | 1.7 | 3.5 | 0.00 | 0.00 | 0.00 | 65 | 1020.3 |
| 20260830153253 | 88 | 242 | 1.7 | 3.5 | 0.00 | 0.00 | 0.00 | 64 | 1020.3 |
| 20260830152248 | 87 | 228 | 0.9 | 2.6 | 0.00 | 0.00 | 0.00 | 67 | 1020.3 |
| 20260830151243 | 86 | 206 | 1.7 | 2.6 | 0.00 | 0.00 | 0.00 | 68 | 1020.0 |
| 20260830150258 | 85 | 209 | 0.9 | 3.5 | 0.00 | 0.00 | 0.00 | 71 | 1020.1 |
| 20260830145233 | 83 | 162 | 1.7 | 2.6 | 0.00 | 0.00 | 0.00 | 74 | 1020.1 |
| 20260830144248 | 83 | 232 | 0.9 | 2.6 | 0.00 | 0.00 | 0.00 | 74 | 1020.2 |
| 20260830143243 | 81 | 198 | 0.9 | 2.6 | 0.00 | 0.00 | 0.00 | 77 | 1020.2 |
| 20260830142239 | 80 | 197 | 1.7 | 3.5 | 0.00 | 0.00 | 0.00 | 78 | 1020.2 |
| 20260830141234 | 80 | 174 | 1.7 | 2.6 | 0.00 | 0.00 | 0.00 | 79 | 1020.3 |
| 20260830140309 | 80 | 154 | 0.9 | 2.6 | 0.00 | 0.00 | 0.00 | 80 | 1020.3 |
| 20260830135243 | 79 | 188 | 0.9 | 1.7 | 0.00 | 0.00 | 0.00 | 82 | 1020.2 |
| 20260830134237 | 78 | 187 | 1.7 | 2.6 | 0.00 | 0.00 | 0.00 | 83 | 1020.2 |
| 20260830133233 | 76 | 159 | 0.9 | 1.7 | 0.00 | 0.00 | 0.00 | 88 | 1020.4 |
| 20260830132248 | 72 | 200 | 0.9 | 1.7 | 0.00 | 0.00 | 0.00 | 97 | 1020.4 |
| 20260830131010 | 70 | 90 | 0.0 | 0.9 | 0.00 | 0.00 | 0.00 | 99 | 1020.3 |
| 20260830130005 | 71 | 331 | 0.0 | 0.9 | 0.00 | 0.00 | 0.00 | 99 | 1020.2 |
| 20260830124959 | 68 | 0.0 | 0.0 | 0.00 | 0.00 | 0.00 | 99 | 1020.3 | |
| 20260830124013 | 66 | 0.0 | 0.0 | 0.00 | 0.00 | 0.00 | 99 | 1020.4 | |
| 20260830123009 | 65 | 0.0 | 0.0 | 0.00 | 0.00 | 0.00 | 99 | 1020.2 | |
| 20260830122004 | 65 | 0.0 | 0.0 | 0.00 | 0.00 | 0.00 | 99 | 1019.9 | |
| 20260830120959 | 64 | 0.0 | 0.0 | 0.00 | 0.00 | 0.00 | 99 | 1020.0 | |
| 20260830120014 | 64 | 0.0 | 0.0 | 0.00 | 0.00 | 0.00 | 99 | 1020.1 | |
| 20260830115009 | 63 | 0.0 | 0.0 | 0.00 | 0.00 | 0.00 | 99 | 1019.8 | |
| 20260830114004 | 63 | 0.0 | 0.0 | 0.00 | 0.00 | 0.00 | 99 | 1019.8 | |
| 20260830112959 | 63 | 0.0 | 0.0 | 0.00 | 0.00 | 0.00 | 99 | 1019.7 | |
| 20260830112014 | 63 | 0.0 | 0.0 | 0.00 | 0.00 | 0.00 | 99 | 1019.6 | |
| 20260830111009 | 63 | 0.0 | 0.0 | 0.00 | 0.00 | 0.00 | 99 | 1019.6 | |
| 20260830110004 | 63 | 0.0 | 0.0 | 0.00 | 0.00 | 0.00 | 99 | 1019.5 | |
| 20260830104959 | 63 | 0.0 | 0.0 | 0.00 | 0.00 | 0.00 | 99 | 1019.4 | |
| 20260830104013 | 63 | 0.0 | 0.0 | 0.00 | 0.00 | 0.00 | 99 | 1019.4 | |
| 20260830103008 | 63 | 0.0 | 0.0 | 0.00 | 0.00 | 0.00 | 99 | 1019.4 | |
| 20260830102004 | 63 | 0.0 | 0.0 | 0.00 | 0.00 | 0.00 | 99 | 1019.3 | |
| 20260830100959 | 63 | 0.0 | 0.0 | 0.00 | 0.00 | 0.00 | 99 | 1019.2 | |
| 20260830100015 | 64 | 0.0 | 0.0 | 0.00 | 0.00 | 0.00 | 99 | 1019.3 | |
| 20260830095010 | 64 | 0.0 | 0.0 | 0.00 | 0.00 | 0.00 | 99 | 1019.4 | |
| 20260830094006 | 63 | 0.0 | 0.0 | 0.00 | 0.00 | 0.00 | 99 | 1019.5 | |
| 20260830093003 | 64 | 0.0 | 0.0 | 0.00 | 0.00 | 0.00 | 99 | 1019.4 | |
| 20260830091959 | 64 | 0.0 | 0.0 | 0.00 | 0.00 | 0.00 | 99 | 1019.3 | |
| 20260830091014 | 64 | 0.0 | 0.0 | 0.00 | 0.00 | 0.00 | 99 | 1019.5 | |
| 20260830090009 | 64 | 0.0 | 0.0 | 0.00 | 0.00 | 0.00 | 99 | 1019.4 | |
| 20260830085005 | 64 | 0.0 | 0.0 | 0.00 | 0.00 | 0.00 | 99 | 1019.4 | |
| 20260830084000 | 65 | 0.0 | 0.0 | 0.00 | 0.00 | 0.00 | 99 | 1019.4 | |
| 20260830083016 | 64 | 0.0 | 0.0 | 0.00 | 0.00 | 0.00 | 99 | 1019.4 | |
| 20260830082011 | 65 | 0.0 | 0.0 | 0.00 | 0.00 | 0.00 | 99 | 1019.4 | |
| 20260830081006 | 64 | 0.0 | 0.0 | 0.00 | 0.00 | 0.00 | 99 | 1019.5 | |
| 20260830080001 | 65 | 0.0 | 0.0 | 0.00 | 0.00 | 0.00 | 99 | 1019.5 | |
| 20260830075017 | 65 | 0.0 | 0.0 | 0.00 | 0.00 | 0.00 | 99 | 1019.6 | |
| 20260830074013 | 65 | 0.0 | 0.0 | 0.00 | 0.00 | 0.00 | 99 | 1019.5 | |
| 20260830073009 | 64 | 0.0 | 0.0 | 0.00 | 0.00 | 0.00 | 99 | 1019.6 | |
| 20260830072004 | 65 | 0.0 | 0.0 | 0.00 | 0.00 | 0.00 | 99 | 1019.8 | |
| 20260830070959 | 65 | 0.0 | 0.0 | 0.00 | 0.00 | 0.00 | 99 | 1019.8 | |
| 20260830070015 | 65 | 0.0 | 0.0 | 0.00 | 0.00 | 0.00 | 99 | 1019.8 | |
| 20260830065010 | 65 | 0.0 | 0.0 | 0.00 | 0.00 | 0.00 | 99 | 1019.9 | |
| 20260830064004 | 65 | 0.0 | 0.0 | 0.00 | 0.00 | 0.00 | 99 | 1019.9 | |
| 20260830062959 | 65 | 0.0 | 0.0 | 0.00 | 0.00 | 0.00 | 99 | 1019.9 | |
| 20260830062015 | 65 | 0.0 | 0.0 | 0.00 | 0.00 | 0.00 | 99 | 1019.9 | |
| 20260830061009 | 65 | 0.0 | 0.0 | 0.00 | 0.00 | 0.00 | 99 | 1019.9 | |
| 20260830060005 | 65 | 0.0 | 0.0 | 0.00 | 0.00 | 0.00 | 99 | 1019.9 | |
| 20260830054959 | 66 | 0.0 | 0.0 | 0.00 | 0.00 | 0.00 | 99 | 1019.9 | |
| 20260830054034 | 66 | 0.0 | 0.0 | 0.00 | 0.00 | 0.00 | 99 | 1019.7 | |
| 20260830053009 | 66 | 0.0 | 0.0 | 0.00 | 0.00 | 0.00 | 99 | 1019.7 | |
| 20260830052005 | 66 | 0.0 | 0.0 | 0.00 | 0.00 | 0.00 | 99 | 1019.6 | |
| 20260830051000 | 66 | 0.0 | 0.0 | 0.00 | 0.00 | 0.00 | 99 | 1019.6 | |
| 20260830050015 | 66 | 0.0 | 0.0 | 0.00 | 0.00 | 0.00 | 99 | 1019.5 | |
| 20260830045030 | 66 | 0.0 | 0.0 | 0.00 | 0.00 | 0.00 | 99 | 1019.6 | |
| 20260830044027 | 67 | 0.0 | 0.0 | 0.00 | 0.00 | 0.00 | 99 | 1019.5 | |
| 20260830043003 | 67 | 0.0 | 0.0 | 0.00 | 0.00 | 0.00 | 99 | 1019.3 | |
| 20260830041957 | 66 | 0.0 | 0.0 | 0.00 | 0.00 | 0.00 | 99 | 1019.5 | |
| 20260830041013 | 67 | 0.0 | 0.0 | 0.00 | 0.00 | 0.00 | 99 | 1019.5 | |
| 20260830040007 | 67 | 0.0 | 0.0 | 0.00 | 0.00 | 0.00 | 99 | 1019.5 | |
| 20260830035003 | 67 | 0.0 | 0.0 | 0.00 | 0.00 | 0.00 | 99 | 1019.5 | |
| 20260830034038 | 68 | 0.0 | 0.0 | 0.00 | 0.00 | 0.00 | 98 | 1019.6 | |
| 20260830033013 | 68 | 0.0 | 0.0 | 0.00 | 0.00 | 0.00 | 98 | 1019.6 | |
| 20260830032008 | 68 | 0.0 | 0.0 | 0.00 | 0.00 | 0.00 | 98 | 1019.5 | |
| 20260830031003 | 69 | 0.0 | 0.0 | 0.00 | 0.00 | 0.00 | 98 | 1019.6 | |
| 20260830030018 | 70 | 0.0 | 0.0 | 0.00 | 0.00 | 0.00 | 98 | 1019.5 | |
| 20260830025014 | 70 | 0.0 | 0.0 | 0.00 | 0.00 | 0.00 | 98 | 1019.6 | |
| 20260830024009 | 70 | 0.0 | 0.0 | 0.00 | 0.00 | 0.00 | 97 | 1019.4 | |
| 20260830023005 | 71 | 0.0 | 0.0 | 0.00 | 0.00 | 0.00 | 97 | 1019.3 | |
| 20260830021959 | 71 | 0.0 | 0.0 | 0.00 | 0.00 | 0.00 | 96 | 1019.5 | |
| 20260830021034 | 71 | 0.0 | 0.0 | 0.00 | 0.00 | 0.00 | 96 | 1019.5 | |
| 20260830020009 | 71 | 0.0 | 0.0 | 0.00 | 0.00 | 0.00 | 96 | 1019.4 | |
| 20260830015004 | 71 | 0.0 | 0.0 | 0.00 | 0.00 | 0.00 | 95 | 1019.4 | |
| 20260830013959 | 72 | 0.0 | 0.0 | 0.00 | 0.00 | 0.00 | 93 | 1019.1 | |
| 20260830013015 | 72 | 0.0 | 0.0 | 0.00 | 0.00 | 0.00 | 93 | 1019.0 | |
| 20260830012010 | 73 | 0.0 | 0.0 | 0.00 | 0.00 | 0.00 | 93 | 1018.9 | |
| 20260830011005 | 73 | 0.0 | 0.0 | 0.00 | 0.00 | 0.00 | 91 | 1018.9 | |
| 20260830010000 | 74 | 0.0 | 0.0 | 0.00 | 0.00 | 0.00 | 89 | 1018.7 | |
| 20260830005035 | 75 | 0.0 | 0.0 | 0.00 | 0.00 | 0.00 | 87 | 1018.6 | |
| 20260830004030 | 76 | 0.0 | 0.0 | 0.00 | 0.00 | 0.00 | 84 | 1018.7 | |
| 20260830003005 | 78 | 0.0 | 0.0 | 0.00 | 0.00 | 0.00 | 82 | 1018.6 |